ANZ972 NZAA-NFTF

Flight info

Callsign ANZ972
Flight time N/A
Altitude 35000
Route ELPAK B575 KETUP KETUP1A
Aircraft A21N/M-SDE3FGHIRWY/LB1

Departure

Time 2026-05-04 22:57
Airport Auckland International Airport (NZAA)

Arrival

Time N/A
Airport Fua'amotu International Airport (NFTF)
Time Latitude Longitude Altitude Speed Heading
2026-05-04 22:26 -37.00516 174.77806 42 ft 0 kts 341°
2026-05-04 22:40 -37.00517 174.77806 42 ft 0 kts 341°
2026-05-04 22:40 -37.00525 174.77809 41 ft 2 kts 341°
2026-05-04 22:40 -37.00539 174.77815 41 ft 2 kts 341°
2026-05-04 22:40 -37.00553 174.77821 40 ft 2 kts 340°
2026-05-04 22:41 -37.00563 174.77826 40 ft 2 kts 340°
2026-05-04 22:41 -37.00573 174.77830 39 ft 2 kts 340°
2026-05-04 22:41 -37.00588 174.77837 38 ft 2 kts 340°
2026-05-04 22:41 -37.00602 174.77844 37 ft 2 kts 351°
2026-05-04 22:42 -37.00616 174.77840 38 ft 2 kts 34°
2026-05-04 22:42 -37.00626 174.77826 38 ft 2 kts 71°
2026-05-04 22:42 -37.00630 174.77808 38 ft 2 kts 70°
2026-05-04 22:42 -37.00635 174.77791 38 ft 2 kts 69°
2026-05-04 22:43 -37.00638 174.77782 38 ft 0 kts 70°
2026-05-04 22:46 -37.00637 174.77785 38 ft 1 kts 70°
2026-05-04 22:46 -37.00633 174.77800 38 ft 3 kts 70°
2026-05-04 22:47 -37.00621 174.77841 38 ft 6 kts 71°
2026-05-04 22:47 -37.00604 174.77904 37 ft 8 kts 71°
2026-05-04 22:47 -37.00601 174.77989 36 ft 11 kts 109°
2026-05-04 22:47 -37.00672 174.78044 34 ft 13 kts 185°
2026-05-04 22:48 -37.00770 174.78006 32 ft 14 kts 179°
2026-05-04 22:48 -37.00869 174.78044 31 ft 14 kts 154°
2026-05-04 22:48 -37.00930 174.78149 28 ft 17 kts 117°
2026-05-04 22:48 -37.01025 174.78278 18 ft 22 kts 147°
2026-05-04 22:49 -37.01063 174.78424 17 ft 14 kts 82°
2026-05-04 22:49 -37.01048 174.78503 19 ft 1 kts 69°
2026-05-04 22:49 -37.01048 174.78505 19 ft 0 kts 69°
2026-05-04 22:50 -37.01034 174.78552 20 ft 11 kts 70°
2026-05-04 22:50 -37.01001 174.78670 23 ft 14 kts 71°
2026-05-04 22:50 -37.00970 174.78783 26 ft 14 kts 71°
2026-05-04 22:50 -37.00936 174.78905 28 ft 15 kts 71°
2026-05-04 22:51 -37.00899 174.79044 30 ft 17 kts 71°
2026-05-04 22:51 -37.00858 174.79187 32 ft 18 kts 69°
2026-05-04 22:51 -37.00815 174.79340 31 ft 19 kts 72°
2026-05-04 22:51 -37.00771 174.79500 31 ft 19 kts 74°
2026-05-04 22:52 -37.00729 174.79652 33 ft 18 kts 71°
2026-05-04 22:52 -37.00689 174.79799 36 ft 17 kts 71°
2026-05-04 22:52 -37.00652 174.79933 39 ft 15 kts 70°
2026-05-04 22:52 -37.00616 174.80064 39 ft 16 kts 71°
2026-05-04 22:53 -37.00576 174.80208 38 ft 17 kts 69°
2026-05-04 22:53 -37.00532 174.80360 37 ft 19 kts 71°
2026-05-04 22:53 -37.00490 174.80518 34 ft 19 kts 76°
2026-05-04 22:53 -37.00528 174.80611 34 ft 10 kts 166°
2026-05-04 22:54 -37.00552 174.80609 34 ft 0 kts 197°
2026-05-04 22:55 -37.00559 174.80606 35 ft 3 kts 200°
2026-05-04 22:55 -37.00590 174.80588 35 ft 6 kts 208°
2026-05-04 22:55 -37.00652 174.80541 35 ft 13 kts 215°
2026-05-04 22:55 -37.00697 174.80466 35 ft 2 kts 250°
2026-05-04 22:56 -37.00699 174.80458 35 ft 0 kts 251°
2026-05-04 22:56 -37.00708 174.80425 35 ft 25 kts 252°
2026-05-04 22:56 -37.00869 174.79848 35 ft 112 kts 250°
2026-05-04 22:56 -37.01203 174.78626 52 ft 179 kts 250°
2026-05-04 22:57 -37.01639 174.77023 481 ft 204 kts 251°
2026-05-04 22:57 -37.02100 174.75365 1447 ft 205 kts 251°
2026-05-04 22:57 -37.02562 174.73756 2440 ft 197 kts 253°
2026-05-04 22:57 -37.03030 174.72089 2863 ft 211 kts 253°
2026-05-04 22:58 -37.03524 174.70288 3186 ft 231 kts 254°
2026-05-04 22:58 -37.04060 174.68326 3597 ft 248 kts 253°
2026-05-04 22:58 -37.04635 174.66223 4020 ft 265 kts 253°
2026-05-04 22:58 -37.05247 174.63989 4550 ft 278 kts 253°
2026-05-04 22:59 -37.05879 174.61694 5298 ft 281 kts 253°
2026-05-04 22:59 -37.06511 174.59396 6056 ft 283 kts 253°
2026-05-04 22:59 -37.07097 174.57031 6789 ft 285 kts 263°
2026-05-04 22:59 -37.06968 174.54628 7501 ft 278 kts 293°
2026-05-04 23:00 -37.05981 174.52641 8201 ft 272 kts 319°
2026-05-04 23:00 -37.04408 174.51369 8849 ft 271 kts 336°
2026-05-04 23:00 -37.02683 174.50374 9444 ft 276 kts 338°
2026-05-04 23:00 -37.00923 174.49364 10062 ft 281 kts 337°
2026-05-04 23:01 -36.99150 174.48320 10702 ft 284 kts 336°
2026-05-04 23:01 -36.97371 174.47255 11342 ft 287 kts 336°
2026-05-04 23:01 -36.95573 174.46172 11964 ft 289 kts 336°
2026-05-04 23:01 -36.93766 174.45077 12573 ft 292 kts 336°
2026-05-04 23:02 -36.91851 174.44253 13163 ft 291 kts 355°
2026-05-04 23:02 -36.89860 174.44466 13747 ft 290 kts 17°
2026-05-04 23:02 -36.88034 174.45653 14067 ft 302 kts 33°
2026-05-04 23:02 -36.86289 174.47195 14326 ft 316 kts 34°
2026-05-04 23:03 -36.84485 174.48805 14711 ft 325 kts 34°
2026-05-04 23:03 -36.82634 174.50452 15276 ft 328 kts 34°
2026-05-04 23:03 -36.80763 174.52107 15867 ft 329 kts 34°
2026-05-04 23:03 -36.78889 174.53760 16426 ft 331 kts 34°
2026-05-04 23:04 -36.77006 174.55417 16957 ft 334 kts 34°
2026-05-04 23:04 -36.75118 174.57077 17491 ft 336 kts 34°
2026-05-04 23:04 -36.73186 174.58771 18026 ft 338 kts 33°
2026-05-04 23:04 -36.71273 174.60448 18523 ft 340 kts 33°
2026-05-04 23:05 -36.69342 174.62138 18993 ft 342 kts 33°
2026-05-04 23:05 -36.67394 174.63841 19444 ft 345 kts 33°
2026-05-04 23:05 -36.65425 174.65561 19875 ft 348 kts 33°
2026-05-04 23:05 -36.63438 174.67299 20304 ft 351 kts 33°
2026-05-04 23:06 -36.61428 174.69052 20713 ft 354 kts 33°
2026-05-04 23:06 -36.59404 174.70818 21127 ft 356 kts 33°
2026-05-04 23:06 -36.57367 174.72595 21541 ft 359 kts 33°
2026-05-04 23:06 -36.55338 174.74364 21923 ft 361 kts 33°
2026-05-04 23:07 -36.53263 174.76169 22303 ft 364 kts 33°
2026-05-04 23:07 -36.51183 174.77979 22682 ft 367 kts 33°
2026-05-04 23:07 -36.49076 174.79813 23067 ft 369 kts 33°
2026-05-04 23:07 -36.46988 174.81628 23439 ft 371 kts 33°
2026-05-04 23:08 -36.44858 174.83479 23795 ft 374 kts 33°
2026-05-04 23:08 -36.42721 174.85336 24151 ft 376 kts 33°
2026-05-04 23:08 -36.40617 174.87279 24507 ft 379 kts 35°
2026-05-04 23:08 -36.38526 174.89250 24845 ft 381 kts 34°
2026-05-04 23:09 -36.36421 174.91234 25170 ft 383 kts 34°
2026-05-04 23:09 -36.34286 174.93243 25527 ft 385 kts 34°
2026-05-04 23:09 -36.32142 174.95262 25859 ft 387 kts 34°
2026-05-04 23:09 -36.30004 174.97273 26180 ft 389 kts 34°
2026-05-04 23:10 -36.27862 174.99286 26514 ft 390 kts 34°
2026-05-04 23:10 -36.25681 175.01334 26831 ft 392 kts 34°
2026-05-04 23:10 -36.23524 175.03357 27130 ft 394 kts 34°
2026-05-04 23:10 -36.21328 175.05418 27429 ft 395 kts 34°
2026-05-04 23:11 -36.19137 175.07472 27717 ft 397 kts 34°
2026-05-04 23:11 -36.16928 175.09541 27999 ft 399 kts 34°
2026-05-04 23:11 -36.14727 175.11601 28270 ft 401 kts 34°
2026-05-04 23:11 -36.12509 175.13676 28541 ft 403 kts 34°
2026-05-04 23:12 -36.10242 175.15793 28792 ft 405 kts 34°
2026-05-04 23:12 -36.08017 175.17874 29060 ft 406 kts 34°
2026-05-04 23:12 -36.05730 175.20007 29332 ft 408 kts 34°
2026-05-04 23:12 -36.03465 175.22119 29594 ft 409 kts 33°
2026-05-04 23:13 -36.01180 175.24248 29852 ft 411 kts 33°
2026-05-04 23:13 -35.98917 175.26355 30098 ft 413 kts 33°
2026-05-04 23:13 -35.96611 175.28500 30320 ft 414 kts 34°
2026-05-04 23:13 -35.94301 175.30646 30539 ft 416 kts 34°
2026-05-04 23:14 -35.91978 175.32805 30754 ft 418 kts 34°
2026-05-04 23:14 -35.89647 175.34969 30972 ft 420 kts 34°
2026-05-04 23:14 -35.87321 175.37117 31199 ft 422 kts 34°
2026-05-04 23:14 -35.84978 175.39276 31400 ft 424 kts 34°
2026-05-04 23:15 -35.82604 175.41466 31610 ft 426 kts 34°
2026-05-04 23:15 -35.80210 175.43675 31814 ft 428 kts 34°
2026-05-04 23:15 -35.77837 175.45866 32015 ft 430 kts 34°
2026-05-04 23:15 -35.75433 175.48086 32209 ft 432 kts 34°
2026-05-04 23:16 -35.73021 175.50311 32414 ft 434 kts 34°
2026-05-04 23:16 -35.70620 175.52525 32613 ft 435 kts 34°
2026-05-04 23:16 -35.68192 175.54764 32860 ft 436 kts 34°
2026-05-04 23:16 -35.65785 175.56981 33141 ft 435 kts 34°
2026-05-04 23:17 -35.63364 175.59212 33421 ft 435 kts 34°
2026-05-04 23:17 -35.60959 175.61424 33665 ft 435 kts 34°
2026-05-04 23:17 -35.58532 175.63657 33881 ft 436 kts 34°
2026-05-04 23:17 -35.56116 175.65875 34073 ft 437 kts 33°
2026-05-04 23:18 -35.53661 175.68144 34241 ft 438 kts 34°
2026-05-04 23:18 -35.51225 175.70393 34407 ft 439 kts 34°
2026-05-04 23:18 -35.48773 175.72650 34581 ft 440 kts 33°
2026-05-04 23:18 -35.46329 175.74895 34743 ft 441 kts 33°
2026-05-04 23:19 -35.43864 175.77155 34903 ft 441 kts 33°
2026-05-04 23:19 -35.41422 175.79390 35055 ft 442 kts 33°
2026-05-04 23:19 -35.38953 175.81645 35197 ft 444 kts 34°
2026-05-04 23:19 -35.36478 175.83905 35341 ft 445 kts 34°